{"data":{"norad_id":37776,"intl_designator":"2011-041B","name":"BSAT-3C (JCSAT-110R)","alt_names":[],"object_type":"PAYLOAD","status":"ACTIVE","operator":null,"country":"JPN","launch_date":"2011-08-06","launch_site_code":"FRGUI","launch_vehicle":null,"mission":null,"orbit_class":"UNKNOWN","rcs_meters":23.5886,"size_class":null,"mass_kg":null,"dimensions":null,"purposes":["comms"],"wikipedia_slug":null,"has_3d_model":false,"image_url":null,"decayed_at":null,"tle_current":{"epoch":"2026-09-20T00:20:08.946816Z","epoch_age_seconds":63994,"freshness":"FRESH","line1":"1 37776U 11041B   26263.01399244 -.00000355  00000+0  00000+0 0  9990","line2":"2 37776   0.0145 352.9178 0000132 241.5612 239.4353  1.00273438 51423","mean_motion":1.00273438,"eccentricity":1.32e-5,"inclination_deg":0.0145,"raan_deg":352.9178,"arg_perigee_deg":241.5612,"mean_anomaly_deg":239.4353,"bstar":0,"rev_number":5142,"period_min":1436.0732300811,"perigee_km":35785.575003306,"apogee_km":35786.688139996,"semimajor_km":42164.268571651,"source":"CELESTRAK","updated_at":"2026-09-20T09:00:35.169948Z"}}}